Location: Trebic
(49.2170°N, 15.8830°E)
Time: 08:48:05
(UTC+02:00)

Transit 2A Rocket - Pass Details

Date: 30 July 2019
Orbit: 591 x 913 km, 66.7° (Epoch: 25 August)

Event Time Altitude Azimuth Distance (km) Brightness Sun altitude
Rises 04:25:04 0° 267° (W) 3,450 - -8.7°
Exits shadow 04:25:37 - 269° (W) 3,268 7.8 -8.7°
Reaches altitude 10° 04:28:17 10° 283° (WNW) 2,466 7.3 -8.4°
Maximum altitude 04:32:26 20° 330° (NNW) 1,777 7.0 -7.8°
Drops below altitude 10° 04:36:23 10° 18° (NNE) 2,317 8.5 -7.4°
Sets 04:39:19 0° 36° (NE) 3,180 10.0 -7.0°
